GW3137 Weather Reports


time (UTC)temp
F
wind
direction
speed
knots
gust
knots
rain 1hr
in
rain 24hr
in
rain mn
in
humidity
%
barometer
mb
20260902120704 61 115 0.9 2.6 0.00 0.00 0.00 85 1007.9
20260902120204 61 113 0.9 4.3 0.00 0.00 0.00 86 1007.9
20260902113703 60 114 1.7 2.6 0.00 0.00 0.00 87 1008.1
20260902110704 60 93 1.7 2.6 0.00 0.00 0.00 87 1008.4
20260902110203 60 119 0.9 2.6 0.00 0.00 0.00 87 1008.4
20260902103704 60 141 1.7 2.6 0.00 0.00 0.00 89 1008.5
20260902103204 60 111 1.7 4.3 0.00 0.00 0.00 89 1008.5
20260902100704 60 103 0.9 2.6 0.00 0.00 0.00 89 1008.8
20260902100204 60 83 1.7 2.6 0.00 0.00 0.00 89 1008.8
20260902093204 61 81 0.9 2.6 0.00 0.00 0.00 89 1008.8
20260902090704 61 154 0.9 4.3 0.00 0.00 0.00 88 1008.9
20260902090205 61 188 0.9 2.6 0.00 0.00 0.00 89 1009.0
20260902083704 61 115 1.7 5.2 0.00 0.00 0.00 88 1009.3
20260902083204 62 128 0.9 2.6 0.00 0.00 0.00 87 1009.4
20260902080703 61 106 0.9 2.6 0.00 0.00 0.00 87 1009.4
20260902080204 61 84 0.9 2.6 0.00 0.00 0.00 87 1009.4
20260902073703 62 83 1.7 2.6 0.00 0.00 0.00 86 1009.5
20260902073205 62 102 1.7 6.1 0.00 0.00 0.00 86 1009.6
20260902070703 62 126 1.7 2.6 0.00 0.00 0.00 87 1009.7
20260902070204 62 111 1.7 4.3 0.00 0.00 0.00 87 1009.7
20260902060704 62 110 1.7 2.6 0.00 0.00 0.00 87 1009.8
20260902060204 62 82 1.7 6.1 0.00 0.00 0.00 87 1009.8
20260902053704 62 84 0.9 2.6 0.00 0.00 0.00 87 1010.0
20260902053204 62 111 1.7 6.1 0.00 0.00 0.00 87 1010.0
20260902050204 62 122 1.7 5.2 0.00 0.00 0.00 87 1010.1
20260902043203 62 92 0.9 2.6 0.00 0.00 0.00 87 1010.2
20260902040704 62 108 1.7 2.6 0.00 0.00 0.00 87 1010.2
20260902040203 62 90 1.7 2.6 0.00 0.00 0.00 86 1010.2
20260902033704 62 128 1.7 2.6 0.00 0.00 0.00 86 1010.2
20260902033204 62 124 1.7 4.3 0.00 0.00 0.00 86 1010.3
20260902030704 62 170 1.7 5.2 0.00 0.00 0.00 84 1010.1
20260902030204 62 162 1.7 8.7 0.00 0.00 0.00 83 1010.0
20260902023704 65 216 4.3 8.7 0.00 0.00 0.00 79 1009.8
20260902020704 66 155 0.9 4.3 0.00 0.00 0.00 76 1009.7
20260902020204 66 158 0.9 6.1 0.00 0.00 0.00 76 1009.6
20260902013704 65 153 0.9 2.6 0.00 0.00 0.00 77 1009.7
20260902010704 66 224 0.9 7.0 0.00 0.00 0.00 74 1009.7
20260902010204 66 198 1.7 7.0 0.00 0.00 0.00 74 1009.7
20260902003704 66 159 2.6 6.1 0.00 0.00 0.00 74 1009.7
20260902003204 66 173 1.7 6.1 0.00 0.00 0.00 75 1009.8
20260902000703 66 254 0.9 2.6 0.00 0.00 0.00 75 1009.7
20260902000204 66 223 2.6 7.8 0.00 0.00 0.00 75 1009.7
20260901233704 66 210 2.6 7.8 0.00 0.00 0.00 74 1009.7
20260901230704 66 186 3.5 6.1 0.00 0.00 0.00 75 1009.7
20260901230204 66 210 0.9 8.7 0.00 0.00 0.00 76 1009.7
20260901223704 66 185 0.9 6.1 0.00 0.00 0.00 75 1009.8
20260901220704 66 232 2.6 7.0 0.00 0.00 0.00 75 1009.8
20260901220204 66 208 3.5 10.4 0.00 0.00 0.00 74 1009.8
20260901213703 66 255 2.6 7.0 0.00 0.00 0.00 74 1009.7
20260901213204 66 226 4.3 10.4 0.00 0.00 0.00 74 1009.7
20260901210205 66 218 1.7 7.8 0.00 0.00 0.00 74 1009.8
20260901203704 66 150 0.9 2.6 0.00 0.00 0.00 75 1010.0
20260901203204 66 130 1.7 6.1 0.00 0.00 0.00 76 1010.0
20260901200704 66 116 0.0 2.6 0.00 0.00 0.00 75 1010.0
20260901200204 66 119 1.7 6.1 0.00 0.00 0.00 75 1010.0
20260901193704 67 144 1.7 2.6 0.00 0.00 0.00 75 1010.1
20260901193205 66 168 2.6 5.2 0.00 0.00 0.00 75 1010.1
20260901190704 66 119 0.9 2.6 0.00 0.00 0.00 75 1010.2
20260901183705 65 238 2.6 7.0 0.00 0.00 0.00 76 1010.4
20260901183204 65 174 2.6 6.1 0.00 0.00 0.00 75 1010.3
20260901180704 65 195 1.7 5.2 0.00 0.00 0.00 77 1010.2
20260901173703 64 160 2.6 7.0 0.00 0.00 0.00 79 1010.1
20260901173203 64 136 1.7 6.1 0.00 0.00 0.00 79 1009.9
20260901170704 62 165 0.9 4.3 0.00 0.00 0.00 82 1010.1
20260901170204 62 162 1.7 5.2 0.00 0.00 0.00 82 1010.1
20260901163704 61 151 2.6 7.8 0.00 0.00 0.00 84 1010.3
20260901163204 61 163 1.7 8.7 0.00 0.00 0.00 84 1010.3
20260901160204 61 148 2.6 7.0 0.00 0.00 0.00 84 1010.2
20260901153704 60 178 0.9 2.6 0.00 0.00 0.00 86 1010.5
20260901153204 60 168 1.7 8.7 0.00 0.00 0.00 86 1010.4
20260901150204 60 170 2.6 5.2 0.00 0.00 0.00 86 1010.4
20260901143704 59 162 1.7 7.0 0.00 0.00 0.00 86 1010.1
20260901133704 59 236 1.7 4.3 0.00 0.00 0.00 86 1009.7
20260901130704 58 120 0.9 2.6 0.00 0.00 0.00 85 1009.7
20260901130204 59 120 0.9 4.3 0.00 0.00 0.00 85 1009.6
20260901123703 59 153 0.9 1.7 0.00 0.00 0.00 84 1009.5
20260901123204 60 153 0.9 2.6 0.00 0.00 0.00 83 1009.5